Skip Page Navigation
NASA JPL Caltech
NASA Logo - Jet Propulsion Laboratory + View the NASA Portal
+ Center for Near-Earth Object Studies
JPL Home Earth Solar System Stars & Galaxies Technology
JPL Solar System Dynamics
BODIES ORBITS EPHEMERIDES TOOLS PHYSICAL DATA DISCOVERY FAQ SITE MAP
IMPORTANT: The SSD Announcement email list is now available. Major changes are coming in the near future, including possible hostname and/or URL changes. To be notified of such changes, subscribe to this email list.

Please visit this page for more details.


JPL Small-Body Database Browser
Search: [ help ]  
324256 (2006 BZ210)
Classification: Main-belt Asteroid          SPK-ID: 2324256
Ephemeris | Orbit Diagram | Orbital Elements | Mission Design | Physical Parameters | Discovery Circumstances | Close-Approach Data ]

[ show orbit diagram ]
Orbital Elements at Epoch 2458600.5 (2019-Apr-27.0) TDB
Reference: JPL 10 (heliocentric ecliptic J2000)
 Element Value Uncertainty (1-sigma)   Units 
e .2360421780208111 7.2057e-08  
a 3.134255674319653 3.4212e-08 au
q 2.394439138479156 2.317e-07 au
i 10.48090441632042 9.2948e-06 deg
node 320.0147485716972 3.0475e-05 deg
peri 153.5084430516574 3.368e-05 deg
M 157.2011598542617 1.306e-05 deg
tp 2457715.479555456833
(2016-Nov-22.97955546)
7.2088e-05 TDB
period 2026.749423038069
5.55
3.3184e-05
9.085e-08
d
yr
n .1776243258825578 2.9083e-09 deg/d
Q 3.874072210160149 4.2287e-08 au
  Orbit Determination Parameters
   # obs. used (total)      248  
   data-arc span      6759 days (18.51 yr)  
   first obs. used      1999-12-12  
   last obs. used      2018-06-14  
   planetary ephem.      DE431  
   SB-pert. ephem.      SB431-N16  
   condition code      0  
   norm. resid. RMS      .59369  
   source      ORB  
   producer      Otto Matic  
   solution date      2019-Jul-14 06:52:57  

Additional Information
 Earth MOID = 1.41605 au 
 Jupiter MOID = 1.25885 au 
 T_jup = 3.143 
[ show covariance matrix ]

Ephemeris | Orbit Diagram | Orbital Elements | Mission Design | Physical Parameters | Discovery Circumstances | Close-Approach Data ]

Physical Parameter Table
Parameter Symbol Value Units Sigma Reference Notes
absolute magnitude H 15.6   n/a MPO455390  

324256 (2006 BZ210)          Discovered 2006-Jan-31 by CSS at Catalina
Reference: 20120406/Numbers.arcLast Updated: 2012-04-09

[ show close-approach data ]
Alternate Designations
 2006 BZ210 = 1999 XF197 
Ephemeris | Orbit Diagram | Orbital Elements | Mission Design | Physical Parameters | Discovery Circumstances | Close-Approach Data ]
ABOUT SSD CREDITS/AWARDS PRIVACY/COPYRIGHT GLOSSARY LINKS
FirstGov 2019-Oct-15 00:22 UT
(server date/time)  
NASA Home Page
Site Manager:   Ryan S. Park
Webmaster  Alan B. Chamberlin